www.pogodaiklimat.ru

Погода и климат >> Архив погоды >> Пакистан >> Лахор


ПОГОДА в Лахоре

  • Прогноз погоды в Лахоре
  • Монитор погоды в Лахоре

АРХИВ ПОГОДЫ в Лахоре

Время (UTC), дата Ветер
(напр.,м/с)
 
Видим.   Явления Облачность Т
(С)
Тd
(С)
f
(%)
Тe
(С)
Тes
(С)
Комфортность P
(гПа)
Po
(гПа)
Тmin
(С)
Tmax
(С)
R
(мм)
R24
(мм)
S
(см)
09 9.06 З 3 4000 м мгла ясно +42.5 +15.6 21 +44 +58 опасность
перегрева
999.1 976.1
12 9.06 штиль 0 4000 м мгла ясно +43.5 +16.1 21 +45 +51 опасность
перегрева
996.4 973.7 +44.3
15 9.06 штиль 0 4000 м мгла ясно +38.5 +20.2 35 +44 +44 опасность
перегрева
996.5 1000.0
18 9.06 штиль 0 4000 м мгла ясно +34.5 +19.6 42 +40 +40 очень
душно
996.8 973.5
21 9.06 штиль 0 4000 м мгла ясно +32.0 +18.2 44 +37 +37 очень
душно
996.2 1000.0
00 10.06 С 2 4000 м мгла ясно +31.0 +18.8 48 +36 +36 очень
душно
995.9 972.5
03 10.06 штиль 0 4000 м мгла ясно +35.0 +16.3 33 +38 +48 очень
душно
996.7 973.4 +30.6
06 10.06 штиль 0 4000 м мгла ясно +41.5 +17.4 25 +44 +72 опасность
перегрева
996.9 974.1
09 10.06 Ю 1 4000 м мгла ясно +44.0 +16.9 21 +46 +67 опасность
перегрева
994.6 1000.0
12 10.06 ЮВ 1 4000 м мгла ясно +44.5 +17.7 22 +48 +52 опасность
перегрева
992.6 970.1 +45.0
15 10.06 штиль 0 4000 м мгла ясно +40.0 +19.3 30 +44 +44 опасность
перегрева
993.2 1000.0
18 10.06 штиль 0 4000 м мгла ясно +35.5 +20.9 43 +43 +43 опасность
перегрева
993.7 970.6
21 10.06 штиль 0 4000 м мгла ясно +34.0 +20.8 46 +41 +41 опасность
перегрева
993.2 969.7
00 11.06 С 4 4000 м мгла ясно +32.0 +20.0 49 +38 +38 очень
душно
993.8 970.4
03 11.06 ЮВ 1 4000 м мгла 4/0
[Ac trans]
+34.0 +16.9 36 +37 +44 очень
душно
995.4 972.1 +31.1
06 11.06 Ю 2 4000 м мгла 4/0
[Ac trans]
+40.0 +18.3 28 +43 +59 опасность
перегрева
994.8 971.9
09 11.06 Ю 2 4000 м мгла 5/3 1260 м
[Sc Ac trans]
+43.0 +16.4 22 +45 +55 опасность
перегрева
993.7 1000.0
12 11.06 ЮЗ 2 4000 м мгла 3/0
[Ac trans]
+42.0 +18.1 25 +45 +48 опасность
перегрева
991.6 969.1 +43.5
15 11.06 штиль 0 4000 м мгла ясно +39.5 +17.6 28 +42 +42 опасность
перегрева
992.3 1000.0
18 11.06 штиль 0 4000 м мгла ясно +36.0 +19.7 39 +42 +42 опасность
перегрева
993.1 970.0
21 11.06 штиль 0 4000 м мгла ясно +34.0 +19.9 44 +40 +40 очень
душно
993.1 1000.0
00 12.06 С 5 2000 м гроза, ливневой дождь 10/5 900 м
[Cb calv As op]
+30.0 +19.4 53 +36 +36 очень
душно
995.9 972.4 0.4
03 12.06 С 3 4000 м дым {гроза, дождь} 8/4 300 м
[Sc Ac As]
+28.0 +18.8 57 +33 +35 очень
душно
998.2 974.4 +23.7 3
06 12.06 СВ 3 4000 м мгла 3/0
[Ac trans]
+33.5 +19.2 43 +39 +53 опасность
солнечного
удара
998.8 975.4
09 12.06 ЮВ 2 4000 м мгла 8/4 1200 м
[Sc Ac trans]
+39.0 +19.9 33 +44 +51 опасность
перегрева
996.7 1000.0
12 12.06 В 1 4000 м мгла 4/4 1200 м
[Sc]
+39.0 +19.9 33 +44 +47 опасность
перегрева
994.7 971.8 +40.0 3
15 12.06 штиль 0 4000 м мгла ясно +32.5 +19.8 47 +38 +38 очень
душно
995.9 1000.0
18 12.06 штиль 0 4000 м дым ясно +31.0 +20.6 54 +38 +38 очень
душно
998.7 975.1
21 12.06 штиль 0 4000 м дым ясно +29.5 +20.5 58 +36 +36 очень
душно
998.5 974.6
00 13.06 штиль 0 4000 м дым ясно +28.0 +20.5 64 +35 +35 очень
душно
999.3 975.5
03 13.06 штиль 0 4000 м дым ясно +30.5 +19.1 51 +36 +47 очень
душно
1001.6 977.9 +26.5
06 13.06 штиль 0 4000 м мгла ясно +36.5 +17.4 32 +39 +67 опасность
солнечного
удара
1001.2 977.9
09 13.06 СВ 1 4000 м мгла ясно +39.5 +19.6 32 +45 +65 опасность
перегрева
999.6 976.4
12 13.06 З 1 4000 м мгла ясно +41.5 +16.3 23 +43 +48 опасность
перегрева
997.1 974.3 +42.1
15 13.06 штиль 0 4000 м мгла ясно +37.5 +14.5 26 +39 +39 очень
душно
997.6 974.3
18 13.06 штиль 0 4000 м мгла ясно +33.0 +15.5 35 +35 +35 душно 998.6 975.1
21 13.06 штиль 0 4000 м мгла ясно +30.0 +15.6 42 +33 +33 душно 998.3 1000.0
00 14.06 штиль 0 4000 м мгла ясно +28.5 +16.6 49 +32 +32 душно 998.5 974.7
03 14.06 штиль 0 4000 м мгла ясно +34.0 +12.5 27 +34 +45 очень
жарко
999.0 975.6 +26.7
06 14.06 З 1 4000 м мгла ясно +39.0 +12.1 20 +38 +64 опасность
солнечного
удара
999.5 976.4
09 14.06 З 2 4000 м мгла ясно +42.0 +10.8 16 +41 +58 опасность
перегрева
997.3 1000.0
12 14.06 СЗ 2 4000 м мгла ясно +42.0 +10.8 16 +41 +45 опасность
перегрева
995.3 972.7 +43.0
15 14.06 штиль 0 4000 м мгла ясно +39.0 +13.3 22 +39 +39 очень
жарко
995.8 1000.0
18 14.06 штиль 0 4000 м мгла ясно +35.0 +14.1 29 +36 +36 очень
жарко
997.0 973.7
21 14.06 штиль 0 4000 м мгла ясно +33.0 +17.6 40 +37 +37 очень
душно
996.9 973.3
00 15.06 штиль 0 4000 м мгла ясно +31.0 +18.8 48 +36 +36 очень
душно
996.7 973.1
03 15.06 штиль 0 4000 м мгла ясно +34.0 +16.9 36 +37 +48 очень
душно
998.1 974.7 +30.1
06 15.06 штиль 0 4000 м мгла ясно +40.0 +6.5 13 +37 +65 опасность
солнечного
удара
998.8 975.9
09 15.06 ЮЗ 1 4000 м мгла 5/3 1200 м
[Sc Ac trans]
+41.5 +17.4 25 +44 +55 опасность
перегрева
998.0 1000.0
12 15.06 СВ 3 4000 м в посл. час гроза {морось} 8/4 1200 м
[Sc As op]
+33.0 +17.6 40 +37 +38 очень
душно
995.8 972.4 +42.4 0.0
15 15.06 З 3 2000 м гроза, ливневой дождь 10/5 900 м
[Cb calv As op]
+31.5 +16.6 41 +35 +35 очень
душно
999.4 975.6 2
18 15.06 С 1 4000 м в посл. час морось {гроза, дождь} 9/5 900 м
[Cb calv As op]
+30.0 +17.5 47 +34 +34 очень
душно
998.9 975.2 1
21 15.06 штиль 0 4000 м дым 8/4 1200 м
[Sc As op]
+28.0 +18.8 57 +33 +33 очень
душно
998.0 1000.0
00 16.06 штиль 0 4000 м дым 8/4 1200 м
[Sc As op]
+28.0 +18.8 57 +33 +33 очень
душно
999.0 975.2
03 16.06 штиль 0 4000 м мгла 6/3 1200 м
[Sc Ac trans]
+30.0 +17.5 47 +34 +39 очень
душно
1000.3 976.6 +26.5
06 16.06 З 1 4000 м мгла 6/3 1200 м
[Sc Ac trans]
+34.5 +18.6 39 +39 +50 очень
душно
1000.7 977.4

 

Местоположение метеостанции Лахор (Пакистан): широта 31.55 долгота 74.33 высота над уровнем моря 215 м.

В архиве по умолчанию представлена погода в Лахоре за последнюю неделю. Архивные данные за месяц целиком и за предыдущие месяцы, начиная с января 2011 года, Вы можете получить, выбрав интересующий диапазон дат из раскрывающегося списка и нажав кнопку "Ввод!".


*Определитесь, кто Вы:
робот инопланетянин человек

Внимание! Время в таблицах - всемирное. Для получения местного времени необходимо прибавить поправку, которая равна 5 ч.

Смотрите также архив погоды в соседних городах и на ближайших метеорологических станциях:

Погода в Лахор аэропорту (Пакистан) (7 км)
Погода в Касуре (Пакистан) (52 км)
Погода в Амритсаре (Пенджаб, Индия) (52 км)
Погода в Гуджранвале (Пакистан) (70 км)
Погода в Наровале (Пакистан) (80 км)
Погода в Хафизабаде (Пакистан) (87 км)
Погода в Сиялкоте (Пакистан) (107 км)
Погода в Гуджрате (Пакистан) (111 км)
Погода в Сиалкот аэропорту (Пакистан) (113 км)
Погода в Фейсалабаде (Пакистан) (117 км)

Пояснения к столбцам:

Ветер - указаны скорость ветра в м/с - средняя за 10 мин, порывы в срок и между сроками (в фигурных скобках) и направление, откуда дует ветер: С - северный, СВ - северо-восточный, В - восточный, ЮВ - юго-восточный, Ю - южный, ЮЗ - юго-западный, З - западный, СЗ - северо-западный.
Видимость - горизонтальная дальность видимости в метрах или километрах. При видимости от 1 до 10 км при отсутствии осадков обычно наблюдается дымка, при ухудшении видимости до 1 км и менее - туман. В сухую погоду видимость может ухудшаться дымом, пылью или мглою.
Явления - указаны атмосферные явления, наблюдавшиеся в срок или в последний час перед сроком; фигурными скобками обозначены явления, наблюдавшиеся между сроками (за 1-3 часа до срока); квадратными скобками обозначены град или гололедные отложения с указанием их диаметра в мм.
Облачность - указаны через наклонную черту общая и нижняя облачность в баллах и высота нижней границы облаков в метрах; квадратными скобками обозначены формы облаков: Ci - перистые, Cs - перисто-слоистые, Cc - перисто-кучевые, Ac - высококучевые, As - высокослоистые, Sc - слоисто-кучевые, Ns - слоисто-дождевые, Cu - кучевые, Cb - кучево-дождевые. Подробнее классификацию облаков см. в Атласе облаков (PDF).
T - Температура воздуха - температура, измеренная на высоте 2 м над землей.
Td - Температура точки росы - температура, при понижении до которой содержащийся в воздухе водяной пар достигнет насыщения.
f - Относительная влажность воздуха - влажноcть воздуха, измеренная на высоте 2 м над землей.
Te - Эффективная температура - температура, которую ощущает одетый по сезону человек в тени. Характеристика душности погоды. При расчете учитывается влияние влажности воздуха и скорости ветра на теплоощущения человека.
Tes - Эффективная температура на солнце - температура, которую ощущает человек, с поправкой на солнечный нагрев. Характеристика знойности погоды. Зависит от высоты солнца над горизонтом, облачности и скорости ветра. Ночью, в пасмурную погоду, а также при ветре 12 м/с и более поправка равна нулю.
P - Атмосферное давление - приведенное к уровню моря атмосферное давление.
Po - Атмосферное давление - измеренное на уровне метеостанции атмосферное давление.
Tmin - Минимальная температура - минимум температуры воздуха на высоте 2 м над землей.
Tmax - Максимальная температура - максимум температуры воздуха на высоте 2 м над землей.
R - Количество осадков - Количество выпавших осадков за период времени, мм. При наведении курсора мыши на число - период времени, за который выпало указанное количество осадков.
R24 - Количество осадков - Количество выпавших осадков за 24 часа, мм.
S - Снежный покров - Высота снежного покрова, см. При наведении курсора мыши на число - состояние снежного покрова и степень покрытия местности в баллах.